Time,TemperatureF,DewpointF,PressureIn,WindDirection,WindDirectionDegrees,WindSpeedMPH,WindSpeedGustMPH,Humidity,HourlyPrecipIn,Conditions,Clouds,dailyrainin,SoftwareType,DateUTC
2013-07-13 00:01:00,66.6,49.5,29.41,ENE,68,0.0,2.0,54,0.00,,,0.00,meteohub,2013-07-13 04:01:00,
2013-07-13 00:02:00,66.6,49.5,29.41,ENE,68,0.0,2.0,54,0.00,,,0.00,meteohub,2013-07-13 04:02:00,
2013-07-13 00:07:00,66.4,49.3,29.41,ENE,68,0.0,1.0,54,0.00,,,0.00,meteohub,2013-07-13 04:07:00,
2013-07-13 00:12:00,66.2,49.6,29.41,ENE,68,0.0,0.0,55,0.00,,,0.00,meteohub,2013-07-13 04:12:00,
2013-07-13 00:17:00,66.0,49.5,29.41,ENE,68,0.0,0.0,55,0.00,,,0.00,meteohub,2013-07-13 04:17:00,
2013-07-13 00:22:00,65.8,49.6,29.41,ENE,68,0.0,0.0,56,0.00,,,0.00,meteohub,2013-07-13 04:22:00,
2013-07-13 00:27:00,65.7,49.6,29.41,ENE,68,0.0,0.0,56,0.00,,,0.00,meteohub,2013-07-13 04:27:00,
2013-07-13 00:32:00,65.7,49.6,29.41,ENE,68,0.0,0.0,56,0.00,,,0.00,meteohub,2013-07-13 04:32:00,
2013-07-13 00:37:00,65.5,49.8,29.41,ENE,68,0.0,0.0,57,0.00,,,0.00,meteohub,2013-07-13 04:37:00,
2013-07-13 00:42:00,65.3,49.6,29.41,ENE,68,0.0,0.0,57,0.00,,,0.00,meteohub,2013-07-13 04:42:00,
2013-07-13 00:47:00,65.1,50.0,29.41,ENE,68,0.0,0.0,58,0.00,,,0.00,meteohub,2013-07-13 04:47:00,
2013-07-13 00:52:00,65.1,50.0,29.41,ENE,68,0.0,0.0,58,0.00,,,0.00,meteohub,2013-07-13 04:52:00,
2013-07-13 00:57:00,64.8,49.6,29.41,ENE,68,0.0,0.0,58,0.00,,,0.00,meteohub,2013-07-13 04:57:00,
2013-07-13 01:02:00,64.8,50.2,29.41,ENE,68,0.0,0.0,59,0.00,,,0.00,meteohub,2013-07-13 05:02:00,
2013-07-13 01:07:00,64.8,50.2,29.41,ENE,68,0.0,0.0,59,0.00,,,0.00,meteohub,2013-07-13 05:07:00,
2013-07-13 01:12:00,64.6,50.0,29.41,NE,45,0.0,0.0,59,0.00,,,0.00,meteohub,2013-07-13 05:12:00,
2013-07-13 01:17:00,64.6,50.0,29.41,ENE,68,0.0,1.0,59,0.00,,,0.00,meteohub,2013-07-13 05:17:00,
2013-07-13 01:22:00,64.6,50.4,29.41,ENE,68,0.0,2.0,60,0.00,,,0.00,meteohub,2013-07-13 05:22:00,
2013-07-13 01:27:00,64.4,50.2,29.41,ENE,68,0.0,2.0,60,0.00,,,0.00,meteohub,2013-07-13 05:27:00,
2013-07-13 01:32:00,64.4,50.2,29.41,ENE,68,0.0,2.0,60,0.00,,,0.00,meteohub,2013-07-13 05:32:00,
2013-07-13 01:37:00,64.4,50.2,29.41,ENE,68,0.0,0.0,60,0.00,,,0.00,meteohub,2013-07-13 05:37:00,
2013-07-13 01:42:00,64.2,50.5,29.41,ENE,68,0.0,0.0,61,0.00,,,0.00,meteohub,2013-07-13 05:42:00,
2013-07-13 01:47:00,64.2,50.5,29.41,ENE,68,0.0,0.0,61,0.00,,,0.00,meteohub,2013-07-13 05:47:00,
2013-07-13 01:52:00,64.0,50.7,29.41,ENE,68,0.0,0.0,62,0.00,,,0.00,meteohub,2013-07-13 05:52:00,
2013-07-13 01:57:00,63.9,50.5,29.41,ENE,68,0.0,0.0,62,0.00,,,0.00,meteohub,2013-07-13 05:57:00,
2013-07-13 02:02:00,63.9,50.5,29.41,ENE,68,0.0,0.0,62,0.00,,,0.00,meteohub,2013-07-13 06:02:00,
2013-07-13 02:07:00,63.9,50.5,29.41,ENE,68,0.0,0.0,62,0.00,,,0.00,meteohub,2013-07-13 06:07:00,
2013-07-13 02:13:00,63.9,50.5,29.41,ENE,68,0.0,0.0,62,0.00,,,0.00,meteohub,2013-07-13 06:13:00,
2013-07-13 02:18:00,63.9,51.1,29.41,ENE,68,0.0,0.0,63,0.00,,,0.00,meteohub,2013-07-13 06:18:00,
2013-07-13 02:23:00,63.7,50.9,29.41,ENE,68,0.0,0.0,63,0.00,,,0.00,meteohub,2013-07-13 06:23:00,
2013-07-13 02:28:00,63.7,50.9,29.41,ENE,68,0.0,0.0,63,0.00,,,0.00,meteohub,2013-07-13 06:28:00,
2013-07-13 02:33:00,63.5,50.7,29.41,ENE,68,0.0,0.0,63,0.00,,,0.00,meteohub,2013-07-13 06:33:00,
2013-07-13 02:38:00,63.5,50.7,29.41,ENE,68,0.0,0.0,63,0.00,,,0.00,meteohub,2013-07-13 06:38:00,
2013-07-13 02:43:00,63.5,51.1,29.41,ENE,68,0.0,0.0,64,0.00,,,0.00,meteohub,2013-07-13 06:43:00,
2013-07-13 02:48:00,63.3,50.9,29.41,ENE,68,0.0,0.0,64,0.00,,,0.00,meteohub,2013-07-13 06:48:00,
2013-07-13 02:53:00,63.3,50.9,29.41,ENE,68,0.0,0.0,64,0.00,,,0.00,meteohub,2013-07-13 06:53:00,
2013-07-13 02:58:00,63.1,50.7,29.38,ENE,68,0.0,0.0,64,0.00,,,0.00,meteohub,2013-07-13 06:58:00,
2013-07-13 03:03:00,63.1,50.7,29.38,ENE,68,0.0,0.0,64,0.00,,,0.00,meteohub,2013-07-13 07:03:00,
2013-07-13 03:08:00,63.1,51.3,29.38,ENE,68,0.0,0.0,65,0.00,,,0.00,meteohub,2013-07-13 07:08:00,
2013-07-13 03:13:00,63.1,51.3,29.41,ENE,68,0.0,0.0,65,0.00,,,0.00,meteohub,2013-07-13 07:13:00,
2013-07-13 03:18:00,63.1,51.3,29.41,ENE,68,0.0,0.0,65,0.00,,,0.00,meteohub,2013-07-13 07:18:00,
2013-07-13 03:23:00,63.0,51.1,29.41,ENE,68,0.0,0.0,65,0.00,,,0.00,meteohub,2013-07-13 07:23:00,
2013-07-13 03:28:00,63.0,51.4,29.41,ENE,68,0.0,0.0,66,0.00,,,0.00,meteohub,2013-07-13 07:28:00,
2013-07-13 03:33:00,63.0,51.4,29.41,ENE,68,0.0,0.0,66,0.00,,,0.00,meteohub,2013-07-13 07:33:00,
2013-07-13 03:38:00,63.0,51.4,29.41,ENE,68,0.0,0.0,66,0.00,,,0.00,meteohub,2013-07-13 07:38:00,
2013-07-13 03:43:00,63.0,51.4,29.41,ENE,68,0.0,0.0,66,0.00,,,0.00,meteohub,2013-07-13 07:43:00,
2013-07-13 03:48:00,63.0,51.4,29.41,ENE,68,0.0,0.0,66,0.00,,,0.00,meteohub,2013-07-13 07:48:00,
2013-07-13 03:53:00,62.8,51.3,29.41,ENE,68,0.0,0.0,66,0.00,,,0.00,meteohub,2013-07-13 07:53:00,
2013-07-13 03:58:00,62.6,51.4,29.41,ENE,68,0.0,0.0,67,0.00,,,0.00,meteohub,2013-07-13 07:58:00,
2013-07-13 04:03:00,62.4,51.3,29.41,ENE,68,0.0,0.0,67,0.00,,,0.00,meteohub,2013-07-13 08:03:00,
2013-07-13 04:08:00,62.2,51.1,29.41,ENE,68,0.0,0.0,67,0.00,,,0.00,meteohub,2013-07-13 08:08:00,
2013-07-13 04:13:00,62.2,51.6,29.41,ENE,68,0.0,0.0,68,0.00,,,0.00,meteohub,2013-07-13 08:13:00,
2013-07-13 04:18:00,62.2,51.6,29.41,ENE,68,0.0,0.0,68,0.00,,,0.00,meteohub,2013-07-13 08:18:00,
2013-07-13 04:24:00,62.4,51.8,29.41,ENE,68,0.0,0.0,68,0.00,,,0.00,meteohub,2013-07-13 08:24:00,
2013-07-13 04:29:00,62.6,52.0,29.38,ENE,68,1.0,1.0,68,0.00,,,0.00,meteohub,2013-07-13 08:29:00,
2013-07-13 04:34:00,62.6,52.0,29.38,ENE,68,0.0,2.0,68,0.00,,,0.00,meteohub,2013-07-13 08:34:00,
2013-07-13 04:39:00,62.6,52.0,29.38,ENE,68,0.0,2.0,68,0.00,,,0.00,meteohub,2013-07-13 08:39:00,
2013-07-13 04:44:00,62.6,52.0,29.41,ENE,68,0.0,2.0,68,0.00,,,0.00,meteohub,2013-07-13 08:44:00,
2013-07-13 04:49:00,62.8,52.2,29.41,ENE,68,0.0,1.0,68,0.00,,,0.00,meteohub,2013-07-13 08:49:00,
2013-07-13 04:54:00,62.8,52.5,29.41,ENE,68,1.0,0.0,69,0.00,,,0.00,meteohub,2013-07-13 08:54:00,
2013-07-13 04:59:00,63.0,52.7,29.38,ENE,68,0.0,1.0,69,0.00,,,0.00,meteohub,2013-07-13 08:59:00,
2013-07-13 05:04:00,63.0,52.7,29.38,ENE,68,0.0,1.0,69,0.00,,,0.00,meteohub,2013-07-13 09:04:00,
2013-07-13 05:09:00,62.8,52.5,29.38,ENE,68,0.0,2.0,69,0.00,,,0.00,meteohub,2013-07-13 09:09:00,
2013-07-13 05:14:00,62.8,52.5,29.38,ENE,68,0.0,2.0,69,0.00,,,0.00,meteohub,2013-07-13 09:14:00,
2013-07-13 05:19:00,62.8,52.5,29.38,NE,45,0.0,1.0,69,0.00,,,0.00,meteohub,2013-07-13 09:19:00,
2013-07-13 05:24:00,62.8,52.5,29.38,NE,45,0.0,0.0,69,0.00,,,0.00,meteohub,2013-07-13 09:24:00,
2013-07-13 05:29:00,62.8,52.5,29.38,NE,45,0.0,0.0,69,0.00,,,0.00,meteohub,2013-07-13 09:29:00,
2013-07-13 05:34:00,62.8,52.5,29.38,NE,45,0.0,0.0,69,0.00,,,0.00,meteohub,2013-07-13 09:34:00,
2013-07-13 05:39:00,62.8,52.5,29.38,NE,45,0.0,0.0,69,0.00,,,0.00,meteohub,2013-07-13 09:39:00,
2013-07-13 05:44:00,62.6,52.7,29.41,NE,45,0.0,0.0,70,0.00,,,0.00,meteohub,2013-07-13 09:44:00,
2013-07-13 05:49:00,62.6,52.7,29.41,NE,45,0.0,0.0,70,0.00,,,0.00,meteohub,2013-07-13 09:49:00,
2013-07-13 05:54:00,62.4,52.5,29.41,NE,45,0.0,0.0,70,0.00,,,0.00,meteohub,2013-07-13 09:54:00,
2013-07-13 05:59:00,62.1,52.2,29.41,NE,45,0.0,0.0,70,0.00,,,0.00,meteohub,2013-07-13 09:59:00,
2013-07-13 06:04:00,61.9,52.0,29.41,NE,45,0.0,0.0,70,0.00,,,0.00,meteohub,2013-07-13 10:04:00,
2013-07-13 06:09:00,61.7,51.8,29.41,NE,45,0.0,0.0,70,0.00,,,0.00,meteohub,2013-07-13 10:09:00,
2013-07-13 06:14:00,61.5,51.6,29.44,NE,45,0.0,0.0,70,0.00,,,0.00,meteohub,2013-07-13 10:14:00,
2013-07-13 06:19:00,61.5,52.0,29.44,NE,45,0.0,0.0,71,0.00,,,0.00,meteohub,2013-07-13 10:19:00,
2013-07-13 06:24:00,61.5,52.0,29.44,NE,45,0.0,0.0,71,0.00,,,0.00,meteohub,2013-07-13 10:24:00,
2013-07-13 06:29:00,61.5,52.0,29.44,NE,45,0.0,0.0,71,0.00,,,0.00,meteohub,2013-07-13 10:29:00,
2013-07-13 06:34:00,61.7,52.5,29.44,NE,45,0.0,0.0,72,0.00,,,0.00,meteohub,2013-07-13 10:34:00,
2013-07-13 06:39:00,61.7,52.5,29.44,NE,45,0.0,0.0,72,0.00,,,0.00,meteohub,2013-07-13 10:39:00,
2013-07-13 06:44:00,61.7,52.5,29.44,NE,45,0.0,0.0,72,0.00,,,0.00,meteohub,2013-07-13 10:44:00,
2013-07-13 06:49:00,61.9,52.7,29.44,NE,45,0.0,0.0,72,0.00,,,0.00,meteohub,2013-07-13 10:49:00,
2013-07-13 06:54:00,61.9,53.1,29.44,NE,45,0.0,0.0,73,0.00,,,0.00,meteohub,2013-07-13 10:54:00,
2013-07-13 06:59:00,62.1,53.2,29.44,NE,45,0.0,0.0,73,0.00,,,0.00,meteohub,2013-07-13 10:59:00,
2013-07-13 07:04:00,62.2,53.4,29.44,NE,45,0.0,0.0,73,0.00,,,0.00,meteohub,2013-07-13 11:04:00,
2013-07-13 07:09:00,62.4,53.6,29.44,NE,45,0.0,0.0,73,0.00,,,0.00,meteohub,2013-07-13 11:09:00,
2013-07-13 07:14:00,62.6,53.8,29.44,NE,45,0.0,0.0,73,0.00,,,0.00,meteohub,2013-07-13 11:14:00,
2013-07-13 07:19:00,63.0,54.1,29.44,NE,45,1.0,0.0,73,0.00,,,0.00,meteohub,2013-07-13 11:19:00,
2013-07-13 07:24:00,63.5,55.0,29.44,NE,45,0.0,0.0,74,0.00,,,0.00,meteohub,2013-07-13 11:24:00,
2013-07-13 07:29:00,63.9,55.4,29.44,NE,45,1.0,1.0,74,0.00,,,0.00,meteohub,2013-07-13 11:29:00,
2013-07-13 07:35:00,64.2,55.8,29.44,NE,45,0.0,1.0,74,0.00,,,0.00,meteohub,2013-07-13 11:35:00,
2013-07-13 07:40:00,64.8,56.3,29.44,NE,45,0.0,1.0,74,0.00,,,0.00,meteohub,2013-07-13 11:40:00,
2013-07-13 07:45:00,65.1,56.7,29.44,NE,45,1.0,1.0,74,0.00,,,0.00,meteohub,2013-07-13 11:45:00,
2013-07-13 07:50:00,65.7,57.2,29.44,East,90,2.0,2.0,74,0.00,,,0.00,meteohub,2013-07-13 11:50:00,
2013-07-13 07:55:00,65.8,57.0,29.44,ENE,68,2.0,2.0,73,0.00,,,0.00,meteohub,2013-07-13 11:55:00,
2013-07-13 08:00:00,66.2,56.8,29.44,NE,45,0.0,2.0,72,0.00,,,0.00,meteohub,2013-07-13 12:00:00,
2013-07-13 08:05:00,66.4,57.0,29.44,North,0,0.0,2.0,72,0.00,,,0.00,meteohub,2013-07-13 12:05:00,
2013-07-13 08:10:00,66.7,57.4,29.44,NE,45,1.0,2.0,72,0.00,,,0.00,meteohub,2013-07-13 12:10:00,
2013-07-13 08:15:00,66.9,57.2,29.44,NE,45,1.0,2.0,71,0.00,,,0.00,meteohub,2013-07-13 12:15:00,
2013-07-13 08:20:00,67.3,57.6,29.44,NE,45,1.0,2.0,71,0.00,,,0.00,meteohub,2013-07-13 12:20:00,
2013-07-13 08:25:00,67.6,57.6,29.44,NE,45,0.0,3.0,70,0.00,,,0.00,meteohub,2013-07-13 12:25:00,
2013-07-13 08:30:00,68.0,57.9,29.47,NE,45,0.0,3.0,70,0.00,,,0.00,meteohub,2013-07-13 12:30:00,
2013-07-13 08:35:00,68.2,58.1,29.47,East,90,0.0,3.0,70,0.00,,,0.00,meteohub,2013-07-13 12:35:00,
2013-07-13 08:40:00,68.5,57.9,29.47,East,90,0.0,2.0,69,0.00,,,0.00,meteohub,2013-07-13 12:40:00,
2013-07-13 08:45:00,68.9,58.3,29.47,ENE,68,0.0,2.0,69,0.00,,,0.00,meteohub,2013-07-13 12:45:00,
2013-07-13 08:50:00,69.4,58.5,29.47,NE,45,0.0,2.0,68,0.00,,,0.00,meteohub,2013-07-13 12:50:00,
2013-07-13 08:55:00,70.0,58.1,29.47,NNE,22,1.0,3.0,66,0.00,,,0.00,meteohub,2013-07-13 12:55:00,
2013-07-13 09:00:00,70.3,58.1,29.47,NE,45,0.0,3.0,65,0.00,,,0.00,meteohub,2013-07-13 13:00:00,
2013-07-13 09:05:00,70.7,57.9,29.47,East,90,0.0,3.0,64,0.00,,,0.00,meteohub,2013-07-13 13:05:00,
2013-07-13 09:10:00,71.1,57.4,29.47,ENE,68,1.0,2.0,62,0.00,,,0.00,meteohub,2013-07-13 13:10:00,
2013-07-13 09:15:00,71.4,57.7,29.47,East,90,1.0,2.0,62,0.00,,,0.00,meteohub,2013-07-13 13:15:00,
2013-07-13 09:20:00,71.6,57.0,29.47,East,90,0.0,2.0,60,0.00,,,0.00,meteohub,2013-07-13 13:20:00,
2013-07-13 09:25:00,72.0,56.8,29.47,ENE,68,2.0,2.0,59,0.00,,,0.00,meteohub,2013-07-13 13:25:00,
2013-07-13 09:30:00,72.5,55.9,29.47,SE,135,1.0,2.0,56,0.00,,,0.00,meteohub,2013-07-13 13:30:00,
2013-07-13 09:35:00,72.5,54.3,29.47,East,90,1.0,2.0,53,0.00,,,0.00,meteohub,2013-07-13 13:35:00,
2013-07-13 09:40:00,72.9,55.2,29.47,East,90,2.0,2.0,54,0.00,,,0.00,meteohub,2013-07-13 13:40:00,
2013-07-13 09:45:00,73.2,54.0,29.47,ESE,112,0.0,2.0,51,0.00,,,0.00,meteohub,2013-07-13 13:45:00,
2013-07-13 09:50:00,73.2,52.3,29.47,NE,45,0.0,2.0,48,0.00,,,0.00,meteohub,2013-07-13 13:50:00,
2013-07-13 09:55:00,73.4,52.0,29.47,East,90,1.0,2.0,47,0.00,,,0.00,meteohub,2013-07-13 13:55:00,
2013-07-13 10:00:00,73.8,52.3,29.47,East,90,2.0,2.0,47,0.00,,,0.00,meteohub,2013-07-13 14:00:00,
2013-07-13 10:05:00,73.9,50.7,29.47,East,90,1.0,2.0,44,0.00,,,0.00,meteohub,2013-07-13 14:05:00,
2013-07-13 10:10:00,74.5,52.3,29.47,East,90,0.0,2.0,46,0.00,,,0.00,meteohub,2013-07-13 14:10:00,
2013-07-13 10:15:00,74.8,52.2,29.47,NE,45,3.0,3.0,45,0.00,,,0.00,meteohub,2013-07-13 14:15:00,
2013-07-13 10:20:00,74.8,50.2,29.47,East,90,1.0,3.0,42,0.00,,,0.00,meteohub,2013-07-13 14:20:00,
2013-07-13 10:25:00,75.0,51.1,29.47,East,90,1.0,3.0,43,0.00,,,0.00,meteohub,2013-07-13 14:25:00,
2013-07-13 10:30:00,75.6,50.9,29.47,South,180,1.0,2.0,42,0.00,,,0.00,meteohub,2013-07-13 14:30:00,
2013-07-13 10:35:00,76.1,51.4,29.47,West,270,2.0,2.0,42,0.00,,,0.00,meteohub,2013-07-13 14:35:00,
2013-07-13 10:40:00,76.5,51.6,29.47,East,90,0.0,2.0,42,0.00,,,0.00,meteohub,2013-07-13 14:40:00,
2013-07-13 10:45:00,77.4,51.8,29.47,ESE,112,0.0,2.0,41,0.00,,,0.00,meteohub,2013-07-13 14:45:00,
2013-07-13 10:50:00,78.6,52.9,29.47,North,0,1.0,2.0,41,0.00,,,0.00,meteohub,2013-07-13 14:50:00,
2013-07-13 10:55:00,79.2,52.7,29.47,East,90,1.0,2.0,40,0.00,,,0.00,meteohub,2013-07-13 14:55:00,
2013-07-13 11:00:00,79.2,49.1,29.47,NNE,22,2.0,3.0,35,0.00,,,0.00,meteohub,2013-07-13 15:00:00,
2013-07-13 11:05:00,79.7,49.6,29.47,East,90,1.0,3.0,35,0.00,,,0.00,meteohub,2013-07-13 15:05:00,
2013-07-13 11:10:00,79.9,49.8,29.47,North,0,2.0,4.0,35,0.00,,,0.00,meteohub,2013-07-13 15:10:00,
2013-07-13 11:15:00,81.0,49.1,29.47,East,90,0.0,4.0,33,0.00,,,0.00,meteohub,2013-07-13 15:15:00,
2013-07-13 11:21:00,81.7,49.8,29.47,SE,135,1.0,3.0,33,0.00,,,0.00,meteohub,2013-07-13 15:21:00,
2013-07-13 11:26:00,81.9,49.1,29.47,NNE,22,2.0,2.0,32,0.00,,,0.00,meteohub,2013-07-13 15:26:00,
2013-07-13 11:31:00,82.4,49.6,29.47,ENE,68,1.0,2.0,32,0.00,,,0.00,meteohub,2013-07-13 15:31:00,
2013-07-13 11:36:00,82.0,48.4,29.47,East,90,1.0,2.0,31,0.00,,,0.00,meteohub,2013-07-13 15:36:00,
2013-07-13 11:41:00,82.2,47.7,29.44,NE,45,2.0,3.0,30,0.00,,,0.00,meteohub,2013-07-13 15:41:00,
2013-07-13 11:46:00,82.8,48.2,29.44,ESE,112,1.0,3.0,30,0.00,,,0.00,meteohub,2013-07-13 15:46:00,
2013-07-13 11:51:00,83.3,48.6,29.44,East,90,1.0,3.0,30,0.00,,,0.00,meteohub,2013-07-13 15:51:00,
2013-07-13 11:56:00,83.5,48.7,29.44,West,270,0.0,2.0,30,0.00,,,0.00,meteohub,2013-07-13 15:56:00,
2013-07-13 12:01:00,83.8,48.2,29.44,ENE,68,2.0,2.0,29,0.00,,,0.00,meteohub,2013-07-13 16:01:00,
2013-07-13 12:06:00,83.8,47.3,29.44,East,90,1.0,3.0,28,0.00,,,0.00,meteohub,2013-07-13 16:06:00,
2013-07-13 12:11:00,83.7,45.1,29.44,NE,45,0.0,4.0,26,0.00,,,0.00,meteohub,2013-07-13 16:11:00,
2013-07-13 12:16:00,83.7,48.0,29.44,SSW,202,1.0,4.0,29,0.00,,,0.00,meteohub,2013-07-13 16:16:00,
2013-07-13 12:21:00,83.5,47.8,29.44,NE,45,1.0,4.0,29,0.00,,,0.00,meteohub,2013-07-13 16:21:00,
2013-07-13 12:26:00,83.3,46.8,29.47,West,270,2.0,3.0,28,0.00,,,0.00,meteohub,2013-07-13 16:26:00,
2013-07-13 12:31:00,82.4,46.0,29.47,North,0,1.0,3.0,28,0.00,,,0.00,meteohub,2013-07-13 16:31:00,
2013-07-13 12:36:00,82.8,46.4,29.47,West,270,0.0,4.0,28,0.00,,,0.00,meteohub,2013-07-13 16:36:00,
2013-07-13 12:41:00,82.4,46.0,29.47,ENE,68,1.0,4.0,28,0.00,,,0.00,meteohub,2013-07-13 16:41:00,
2013-07-13 12:46:00,82.0,44.8,29.47,North,0,2.0,4.0,27,0.00,,,0.00,meteohub,2013-07-13 16:46:00,
2013-07-13 12:51:00,82.0,46.6,29.47,NE,45,2.0,4.0,29,0.00,,,0.00,meteohub,2013-07-13 16:51:00,
2013-07-13 12:56:00,82.0,46.6,29.47,North,0,1.0,3.0,29,0.00,,,0.00,meteohub,2013-07-13 16:56:00,
2013-07-13 13:01:00,81.5,44.2,29.47,NE,45,1.0,2.0,27,0.00,,,0.00,meteohub,2013-07-13 17:01:00,
2013-07-13 13:06:00,81.3,44.2,29.47,East,90,1.0,3.0,27,0.00,,,0.00,meteohub,2013-07-13 17:06:00,
2013-07-13 13:11:00,81.5,46.2,29.44,East,90,2.0,3.0,29,0.00,,,0.00,meteohub,2013-07-13 17:11:00,
2013-07-13 13:16:00,81.3,46.0,29.44,East,90,0.0,3.0,29,0.00,,,0.00,meteohub,2013-07-13 17:16:00,
2013-07-13 13:21:00,81.5,46.2,29.44,East,90,2.0,2.0,29,0.00,,,0.00,meteohub,2013-07-13 17:21:00,
2013-07-13 13:26:00,81.7,46.4,29.47,ESE,112,0.0,2.0,29,0.00,,,0.00,meteohub,2013-07-13 17:26:00,
2013-07-13 13:31:00,81.3,44.2,29.47,East,90,2.0,2.0,27,0.00,,,0.00,meteohub,2013-07-13 17:31:00,
2013-07-13 13:36:00,81.7,45.5,29.47,NE,45,0.0,3.0,28,0.00,,,0.00,meteohub,2013-07-13 17:36:00,
2013-07-13 13:41:00,81.7,44.4,29.44,East,90,1.0,3.0,27,0.00,,,0.00,meteohub,2013-07-13 17:41:00,
2013-07-13 13:46:00,81.7,45.5,29.44,East,90,0.0,3.0,28,0.00,,,0.00,meteohub,2013-07-13 17:46:00,
2013-07-13 13:51:00,81.9,45.5,29.44,North,0,2.0,2.0,28,0.00,,,0.00,meteohub,2013-07-13 17:51:00,
2013-07-13 13:56:00,81.9,44.6,29.44,NE,45,1.0,3.0,27,0.00,,,0.00,meteohub,2013-07-13 17:56:00,
2013-07-13 14:01:00,81.9,44.6,29.44,SSW,202,0.0,3.0,27,0.00,,,0.00,meteohub,2013-07-13 18:01:00,
2013-07-13 14:06:00,82.2,45.0,29.44,East,90,0.0,3.0,27,0.00,,,0.00,meteohub,2013-07-13 18:06:00,
2013-07-13 14:11:00,82.4,44.1,29.47,ESE,112,1.0,3.0,26,0.00,,,0.00,meteohub,2013-07-13 18:11:00,
2013-07-13 14:16:00,82.6,44.2,29.47,SW,225,1.0,3.0,26,0.00,,,0.00,meteohub,2013-07-13 18:16:00,
2013-07-13 14:21:00,82.6,44.2,29.47,NE,45,3.0,3.0,26,0.00,,,0.00,meteohub,2013-07-13 18:21:00,
2013-07-13 14:26:00,82.6,44.2,29.47,SSE,158,0.0,3.0,26,0.00,,,0.00,meteohub,2013-07-13 18:26:00,
2013-07-13 14:31:00,83.3,45.9,29.47,SSW,202,1.0,3.0,27,0.00,,,0.00,meteohub,2013-07-13 18:31:00,
2013-07-13 14:36:00,82.9,44.6,29.47,NNE,22,3.0,3.0,26,0.00,,,0.00,meteohub,2013-07-13 18:36:00,
2013-07-13 14:41:00,82.8,43.3,29.44,East,90,3.0,3.0,25,0.00,,,0.00,meteohub,2013-07-13 18:41:00,
2013-07-13 14:46:00,82.6,44.2,29.44,East,90,2.0,3.0,26,0.00,,,0.00,meteohub,2013-07-13 18:46:00,
2013-07-13 14:51:00,82.8,46.4,29.44,East,90,1.0,3.0,28,0.00,,,0.00,meteohub,2013-07-13 18:51:00,
2013-07-13 14:56:00,83.1,47.7,29.44,East,90,2.0,3.0,29,0.00,,,0.00,meteohub,2013-07-13 18:56:00,
2013-07-13 15:01:00,83.7,47.1,29.44,East,90,2.0,3.0,28,0.00,,,0.00,meteohub,2013-07-13 19:01:00,
2013-07-13 15:06:00,83.8,48.2,29.44,ENE,68,1.0,3.0,29,0.00,,,0.00,meteohub,2013-07-13 19:06:00,
2013-07-13 15:12:00,84.0,48.4,29.44,WSW,248,2.0,3.0,29,0.00,,,0.00,meteohub,2013-07-13 19:12:00,
2013-07-13 15:17:00,84.2,48.6,29.44,ENE,68,2.0,3.0,29,0.00,,,0.00,meteohub,2013-07-13 19:17:00,
2013-07-13 15:22:00,84.2,47.7,29.44,East,90,1.0,3.0,28,0.00,,,0.00,meteohub,2013-07-13 19:22:00,
2013-07-13 15:27:00,84.0,48.4,29.44,East,90,2.0,3.0,29,0.00,,,0.00,meteohub,2013-07-13 19:27:00,
2013-07-13 15:32:00,84.6,47.8,29.44,SSW,202,3.0,3.0,28,0.00,,,0.00,meteohub,2013-07-13 19:32:00,
2013-07-13 15:37:00,85.6,49.8,29.44,SSE,158,1.0,3.0,29,0.00,,,0.00,meteohub,2013-07-13 19:37:00,
2013-07-13 15:42:00,85.6,47.8,29.44,SW,225,1.0,3.0,27,0.00,,,0.00,meteohub,2013-07-13 19:42:00,
2013-07-13 15:47:00,86.5,49.6,29.44,WSW,248,2.0,3.0,28,0.00,,,0.00,meteohub,2013-07-13 19:47:00,
2013-07-13 15:52:00,86.7,49.6,29.44,NNE,22,2.0,3.0,28,0.00,,,0.00,meteohub,2013-07-13 19:52:00,
2013-07-13 15:58:00,86.9,49.8,29.41,North,0,0.0,3.0,28,0.00,,,0.00,meteohub,2013-07-13 19:58:00,
2013-07-13 16:03:00,87.1,50.0,29.41,South,180,1.0,2.0,28,0.00,,,0.00,meteohub,2013-07-13 20:03:00,
2013-07-13 16:08:00,87.3,50.2,29.41,East,90,0.0,2.0,28,0.00,,,0.00,meteohub,2013-07-13 20:08:00,
2013-07-13 16:13:00,87.3,49.3,29.41,East,90,1.0,2.0,27,0.00,,,0.00,meteohub,2013-07-13 20:13:00,
2013-07-13 16:18:00,87.6,50.5,29.41,NW,315,0.0,3.0,28,0.00,,,0.00,meteohub,2013-07-13 20:18:00,
2013-07-13 16:23:00,88.0,50.7,29.41,ESE,112,2.0,3.0,28,0.00,,,0.00,meteohub,2013-07-13 20:23:00,
2013-07-13 16:28:00,87.6,50.5,29.41,NE,45,2.0,3.0,28,0.00,,,0.00,meteohub,2013-07-13 20:28:00,
2013-07-13 16:33:00,87.6,49.5,29.41,South,180,1.0,2.0,27,0.00,,,0.00,meteohub,2013-07-13 20:33:00,
2013-07-13 16:38:00,88.2,50.0,29.41,SSW,202,3.0,3.0,27,0.00,,,0.00,meteohub,2013-07-13 20:38:00,
2013-07-13 16:43:00,88.0,49.8,29.38,East,90,0.0,3.0,27,0.00,,,0.00,meteohub,2013-07-13 20:43:00,
2013-07-13 16:48:00,88.7,51.4,29.38,East,90,0.0,3.0,28,0.00,,,0.00,meteohub,2013-07-13 20:48:00,
2013-07-13 16:53:00,88.5,51.3,29.38,West,270,3.0,3.0,28,0.00,,,0.00,meteohub,2013-07-13 20:53:00,
2013-07-13 16:58:00,88.3,50.2,29.41,East,90,1.0,3.0,27,0.00,,,0.00,meteohub,2013-07-13 20:58:00,
2013-07-13 17:03:00,88.3,50.2,29.41,ENE,68,1.0,3.0,27,0.00,,,0.00,meteohub,2013-07-13 21:03:00,
2013-07-13 17:08:00,88.7,50.4,29.41,ESE,112,2.0,3.0,27,0.00,,,0.00,meteohub,2013-07-13 21:08:00,
2013-07-13 17:13:00,87.1,50.0,29.38,NE,45,3.0,3.0,28,0.00,,,0.00,meteohub,2013-07-13 21:13:00,
2013-07-13 17:14:00,85.8,48.9,29.38,East,90,1.0,3.0,28,0.00,,,0.00,meteohub,2013-07-13 21:14:00,
2013-07-13 17:19:00,86.9,49.8,29.38,East,90,1.0,4.0,28,0.00,,,0.00,meteohub,2013-07-13 21:19:00,
2013-07-13 17:24:00,88.0,50.7,29.38,East,90,1.0,4.0,28,0.00,,,0.00,meteohub,2013-07-13 21:24:00,
2013-07-13 17:29:00,88.3,51.1,29.41,East,90,0.0,4.0,28,0.00,,,0.00,meteohub,2013-07-13 21:29:00,
2013-07-13 17:34:00,88.2,50.9,29.41,East,90,1.0,2.0,28,0.00,,,0.00,meteohub,2013-07-13 21:34:00,
2013-07-13 17:39:00,87.6,50.5,29.41,South,180,1.0,2.0,28,0.00,,,0.00,meteohub,2013-07-13 21:39:00,
2013-07-13 17:44:00,88.2,50.9,29.38,East,90,2.0,2.0,28,0.00,,,0.00,meteohub,2013-07-13 21:44:00,
2013-07-13 17:49:00,88.5,51.3,29.38,East,90,0.0,2.0,28,0.00,,,0.00,meteohub,2013-07-13 21:49:00,
2013-07-13 17:54:00,89.1,51.8,29.38,East,90,1.0,2.0,28,0.00,,,0.00,meteohub,2013-07-13 21:54:00,
2013-07-13 17:59:00,89.4,52.0,29.41,East,90,1.0,2.0,28,0.00,,,0.00,meteohub,2013-07-13 21:59:00,
2013-07-13 18:04:00,89.2,48.7,29.41,East,90,1.0,2.0,25,0.00,,,0.00,meteohub,2013-07-13 22:04:00,
2013-07-13 18:09:00,89.4,51.1,29.41,SW,225,0.0,2.0,27,0.00,,,0.00,meteohub,2013-07-13 22:09:00,
2013-07-13 18:14:00,89.4,48.9,29.41,East,90,1.0,2.0,25,0.00,,,0.00,meteohub,2013-07-13 22:14:00,
2013-07-13 18:19:00,89.2,48.7,29.41,East,90,0.0,2.0,25,0.00,,,0.00,meteohub,2013-07-13 22:19:00,
2013-07-13 18:24:00,89.4,48.9,29.41,ESE,112,2.0,2.0,25,0.00,,,0.00,meteohub,2013-07-13 22:24:00,
2013-07-13 18:29:00,89.2,49.8,29.38,ESE,112,0.0,3.0,26,0.00,,,0.00,meteohub,2013-07-13 22:29:00,
2013-07-13 18:34:00,89.1,48.7,29.38,SE,135,0.0,3.0,25,0.00,,,0.00,meteohub,2013-07-13 22:34:00,
2013-07-13 18:39:00,89.2,48.7,29.38,East,90,0.0,3.0,25,0.00,,,0.00,meteohub,2013-07-13 22:39:00,
2013-07-13 18:44:00,88.9,49.6,29.41,SW,225,1.0,3.0,26,0.00,,,0.00,meteohub,2013-07-13 22:44:00,
2013-07-13 18:49:00,88.3,50.2,29.41,East,90,1.0,2.0,27,0.00,,,0.00,meteohub,2013-07-13 22:49:00,
2013-07-13 18:54:00,87.6,49.5,29.41,South,180,1.0,2.0,27,0.00,,,0.00,meteohub,2013-07-13 22:54:00,
2013-07-13 18:59:00,87.4,49.3,29.41,East,90,1.0,2.0,27,0.00,,,0.00,meteohub,2013-07-13 22:59:00,
2013-07-13 19:04:00,87.1,50.0,29.41,East,90,1.0,2.0,28,0.00,,,0.00,meteohub,2013-07-13 23:04:00,
2013-07-13 19:09:00,86.7,49.6,29.41,East,90,3.0,3.0,28,0.00,,,0.00,meteohub,2013-07-13 23:09:00,
2013-07-13 19:14:00,86.2,49.3,29.38,SSE,158,2.0,3.0,28,0.00,,,0.00,meteohub,2013-07-13 23:14:00,
2013-07-13 19:19:00,85.6,49.8,29.38,East,90,1.0,3.0,29,0.00,,,0.00,meteohub,2013-07-13 23:19:00,
2013-07-13 19:24:00,85.1,49.3,29.38,East,90,1.0,3.0,29,0.00,,,0.00,meteohub,2013-07-13 23:24:00,
2013-07-13 19:29:00,84.7,48.9,29.41,East,90,1.0,2.0,29,0.00,,,0.00,meteohub,2013-07-13 23:29:00,
2013-07-13 19:34:00,84.4,49.6,29.41,SE,135,0.0,2.0,30,0.00,,,0.00,meteohub,2013-07-13 23:34:00,
2013-07-13 19:39:00,84.4,49.6,29.41,ESE,112,3.0,3.0,30,0.00,,,0.00,meteohub,2013-07-13 23:39:00,
2013-07-13 19:44:00,83.8,50.0,29.41,ESE,112,1.0,2.0,31,0.00,,,0.00,meteohub,2013-07-13 23:44:00,
2013-07-13 19:49:00,83.5,49.6,29.41,East,90,0.0,3.0,31,0.00,,,0.00,meteohub,2013-07-13 23:49:00,
2013-07-13 19:54:00,82.4,49.6,29.41,SE,135,2.0,3.0,32,0.00,,,0.00,meteohub,2013-07-13 23:54:00,
2013-07-13 19:59:00,81.5,49.6,29.41,East,90,0.0,2.0,33,0.00,,,0.00,meteohub,2013-07-13 23:59:00,
2013-07-13 20:02:00,80.8,49.1,29.41,SE,135,2.0,2.0,33,0.00,,,0.00,meteohub,2013-07-14 00:02:00,
2013-07-13 20:07:00,80.1,49.1,29.41,SE,135,0.0,2.0,34,0.00,,,0.00,meteohub,2013-07-14 00:07:00,
2013-07-13 20:12:00,79.5,48.7,29.41,SE,135,0.0,2.0,34,0.00,,,0.00,meteohub,2013-07-14 00:12:00,
2013-07-13 20:17:00,79.0,49.8,29.41,East,90,1.0,2.0,36,0.00,,,0.00,meteohub,2013-07-14 00:17:00,
2013-07-13 20:22:00,78.4,49.3,29.41,East,90,1.0,2.0,36,0.00,,,0.00,meteohub,2013-07-14 00:22:00,
2013-07-13 20:27:00,78.1,49.6,29.41,North,0,1.0,2.0,37,0.00,,,0.00,meteohub,2013-07-14 00:27:00,
2013-07-13 20:32:00,77.5,50.0,29.41,East,90,0.0,1.0,38,0.00,,,0.00,meteohub,2013-07-14 00:32:00,
2013-07-13 20:37:00,77.2,50.4,29.41,East,90,0.0,1.0,39,0.00,,,0.00,meteohub,2013-07-14 00:37:00,
2013-07-13 20:42:00,76.8,50.7,29.41,ENE,68,0.0,1.0,40,0.00,,,0.00,meteohub,2013-07-14 00:42:00,
2013-07-13 20:47:00,76.5,50.4,29.41,ENE,68,0.0,1.0,40,0.00,,,0.00,meteohub,2013-07-14 00:47:00,
2013-07-13 20:52:00,76.3,50.9,29.41,ENE,68,0.0,1.0,41,0.00,,,0.00,meteohub,2013-07-14 00:52:00,
2013-07-13 20:57:00,75.7,51.1,29.41,ENE,68,0.0,1.0,42,0.00,,,0.00,meteohub,2013-07-14 00:57:00,
2013-07-13 21:02:00,75.4,50.7,29.41,ENE,68,0.0,0.0,42,0.00,,,0.00,meteohub,2013-07-14 01:02:00,
2013-07-13 21:07:00,75.2,50.5,29.41,ENE,68,0.0,0.0,42,0.00,,,0.00,meteohub,2013-07-14 01:07:00,
2013-07-13 21:12:00,74.8,50.9,29.41,ENE,68,0.0,0.0,43,0.00,,,0.00,meteohub,2013-07-14 01:12:00,
2013-07-13 21:17:00,74.3,51.1,29.41,ENE,68,0.0,0.0,44,0.00,,,0.00,meteohub,2013-07-14 01:17:00,
2013-07-13 21:22:00,74.1,50.9,29.41,ENE,68,0.0,0.0,44,0.00,,,0.00,meteohub,2013-07-14 01:22:00,
2013-07-13 21:27:00,73.9,50.7,29.41,ENE,68,0.0,0.0,44,0.00,,,0.00,meteohub,2013-07-14 01:27:00,
2013-07-13 21:32:00,73.6,50.9,29.41,ENE,68,0.0,0.0,45,0.00,,,0.00,meteohub,2013-07-14 01:32:00,
2013-07-13 21:37:00,73.4,50.7,29.41,ENE,68,0.0,0.0,45,0.00,,,0.00,meteohub,2013-07-14 01:37:00,
2013-07-13 21:42:00,73.0,51.6,29.44,ENE,68,0.0,0.0,47,0.00,,,0.00,meteohub,2013-07-14 01:42:00,
2013-07-13 21:47:00,72.9,51.4,29.44,ENE,68,0.0,0.0,47,0.00,,,0.00,meteohub,2013-07-14 01:47:00,
2013-07-13 21:52:00,72.7,51.3,29.44,ENE,68,0.0,0.0,47,0.00,,,0.00,meteohub,2013-07-14 01:52:00,
2013-07-13 21:57:00,72.5,51.6,29.47,ENE,68,0.0,0.0,48,0.00,,,0.00,meteohub,2013-07-14 01:57:00,
2013-07-13 22:02:00,72.3,51.6,29.47,ENE,68,0.0,0.0,48,0.00,,,0.00,meteohub,2013-07-14 02:02:00,
2013-07-13 22:07:00,72.1,52.0,29.47,ENE,68,0.0,0.0,49,0.00,,,0.00,meteohub,2013-07-14 02:07:00,
2013-07-13 22:12:00,72.0,51.8,29.47,ENE,68,0.0,0.0,49,0.00,,,0.00,meteohub,2013-07-14 02:12:00,
2013-07-13 22:17:00,71.8,52.2,29.47,ENE,68,0.0,0.0,50,0.00,,,0.00,meteohub,2013-07-14 02:17:00,
2013-07-13 22:22:00,71.6,52.0,29.47,ENE,68,0.0,0.0,50,0.00,,,0.00,meteohub,2013-07-14 02:22:00,
2013-07-13 22:27:00,71.6,52.5,29.47,ENE,68,0.0,0.0,51,0.00,,,0.00,meteohub,2013-07-14 02:27:00,
2013-07-13 22:32:00,71.4,52.3,29.47,ENE,68,0.0,0.0,51,0.00,,,0.00,meteohub,2013-07-14 02:32:00,
2013-07-13 22:37:00,71.4,52.9,29.47,ENE,68,0.0,0.0,52,0.00,,,0.00,meteohub,2013-07-14 02:37:00,
2013-07-13 22:42:00,71.2,53.2,29.47,ENE,68,0.0,0.0,53,0.00,,,0.00,meteohub,2013-07-14 02:42:00,
2013-07-13 22:47:00,71.2,53.2,29.47,ENE,68,0.0,0.0,53,0.00,,,0.00,meteohub,2013-07-14 02:47:00,
2013-07-13 22:52:00,71.1,53.6,29.47,ENE,68,0.0,0.0,54,0.00,,,0.00,meteohub,2013-07-14 02:52:00,
2013-07-13 22:57:00,71.1,53.6,29.47,ENE,68,0.0,0.0,54,0.00,,,0.00,meteohub,2013-07-14 02:57:00,
2013-07-13 23:02:00,70.9,53.4,29.47,ENE,68,0.0,0.0,54,0.00,,,0.00,meteohub,2013-07-14 03:02:00,
2013-07-13 23:07:00,70.9,53.4,29.47,ENE,68,0.0,0.0,54,0.00,,,0.00,meteohub,2013-07-14 03:07:00,
2013-07-13 23:12:00,70.7,53.8,29.50,ENE,68,0.0,0.0,55,0.00,,,0.00,meteohub,2013-07-14 03:12:00,
2013-07-13 23:17:00,70.5,53.6,29.50,ENE,68,0.0,0.0,55,0.00,,,0.00,meteohub,2013-07-14 03:17:00,
2013-07-13 23:22:00,70.3,53.4,29.50,ENE,68,0.0,0.0,55,0.00,,,0.00,meteohub,2013-07-14 03:22:00,
2013-07-13 23:27:00,70.3,54.0,29.47,ENE,68,0.0,0.0,56,0.00,,,0.00,meteohub,2013-07-14 03:27:00,
2013-07-13 23:32:00,70.2,53.8,29.47,ENE,68,0.0,0.0,56,0.00,,,0.00,meteohub,2013-07-14 03:32:00,
2013-07-13 23:37:00,70.0,53.6,29.47,ENE,68,0.0,0.0,56,0.00,,,0.00,meteohub,2013-07-14 03:37:00,
2013-07-13 23:42:00,69.8,53.4,29.47,ENE,68,0.0,0.0,56,0.00,,,0.00,meteohub,2013-07-14 03:42:00,
2013-07-13 23:47:00,69.8,53.4,29.47,ENE,68,0.0,0.0,56,0.00,,,0.00,meteohub,2013-07-14 03:47:00,
2013-07-13 23:52:00,69.8,53.4,29.47,ENE,68,0.0,0.0,56,0.00,,,0.00,meteohub,2013-07-14 03:52:00,